| time (UTC) | temp C | wind direction | speed KPH | gust KPH | rain 1hr cm | rain 24hr cm | rain mn cm | humidity % | barometer mb |
| 20260506013808 | 25 | 65 | 3.2 | 4.8 | 0.00 | 0.00 | 0.00 | 28 | 913.0 |
| 20260506013308 | 25 | 97 | 12.9 | 12.9 | 0.00 | 0.00 | 0.00 | 27 | 913.0 |
| 20260506012823 | 25 | 112 | 3.2 | 3.2 | 0.00 | 0.00 | 0.00 | 26 | 913.0 |
| 20260506012323 | 26 | 56 | 3.2 | 6.4 | 0.00 | 0.00 | 0.00 | 26 | 913.0 |
| 20260506011809 | 26 | 103 | 1.6 | 4.8 | 0.00 | 0.00 | 0.00 | 26 | 913.0 |
| 20260506011308 | 26 | 52 | 1.6 | 4.8 | 0.00 | 0.00 | 0.00 | 26 | 913.0 |
| 20260506010808 | 27 | 86 | 1.6 | 1.6 | 0.00 | 0.00 | 0.00 | 27 | 913.0 |
| 20260506010308 | 27 | 92 | 4.8 | 4.8 | 0.00 | 0.00 | 0.00 | 26 | 913.0 |
| 20260506005808 | 27 | 69 | 4.8 | 4.8 | 0.00 | 0.00 | 0.00 | 25 | 913.0 |
| 20260506005308 | 27 | 255 | 3.2 | 9.7 | 0.00 | 0.00 | 0.00 | 25 | 912.6 |
| 20260506004808 | 27 | 139 | 4.8 | 6.4 | 0.00 | 0.00 | 0.00 | 24 | 912.6 |
| 20260506004308 | 27 | 23 | 4.8 | 12.9 | 0.00 | 0.00 | 0.00 | 24 | 912.6 |
| 20260506003807 | 27 | 335 | 4.8 | 4.8 | 0.00 | 0.00 | 0.00 | 28 | 912.6 |
| 20260506003308 | 27 | 203 | 1.6 | 11.3 | 0.00 | 0.00 | 0.00 | 26 | 912.6 |
| 20260506002808 | 27 | 331 | 3.2 | 4.8 | 0.00 | 0.00 | 0.00 | 25 | 912.6 |
| 20260506002309 | 27 | 135 | 8.0 | 8.0 | 0.00 | 0.00 | 0.00 | 24 | 912.6 |
| 20260506001823 | 27 | 346 | 8.0 | 8.0 | 0.00 | 0.00 | 0.00 | 24 | 912.6 |
| 20260506001307 | 28 | 46 | 4.8 | 4.8 | 0.00 | 0.00 | 0.00 | 24 | 912.6 |
| 20260506000807 | 28 | 262 | 1.6 | 8.0 | 0.00 | 0.00 | 0.00 | 26 | 912.6 |
| 20260506000309 | 27 | 268 | 4.8 | 6.4 | 0.00 | 0.00 | 0.00 | 26 | 912.6 |
| 20260505235807 | 27 | 332 | 4.8 | 9.7 | 0.00 | 0.00 | 0.00 | 25 | 912.6 |
| 20260505235307 | 27 | 10 | 4.8 | 9.7 | 0.00 | 0.00 | 0.00 | 27 | 912.6 |
| 20260505234807 | 26 | 28 | 3.2 | 4.8 | 0.00 | 0.00 | 0.00 | 29 | 912.6 |
| 20260505234307 | 26 | 332 | 3.2 | 8.0 | 0.00 | 0.00 | 0.00 | 28 | 912.6 |
| 20260505233807 | 26 | 335 | 1.6 | 4.8 | 0.00 | 0.00 | 0.00 | 27 | 912.6 |
| 20260505233307 | 27 | 144 | 3.2 | 8.0 | 0.00 | 0.00 | 0.00 | 27 | 912.6 |
| 20260505232823 | 27 | 109 | 3.2 | 4.8 | 0.00 | 0.00 | 0.00 | 27 | 913.0 |
| 20260505232307 | 27 | 298 | 4.8 | 8.0 | 0.00 | 0.00 | 0.00 | 26 | 912.6 |
| 20260505231809 | 27 | 148 | 4.8 | 4.8 | 0.00 | 0.00 | 0.00 | 28 | 912.6 |
| 20260505231307 | 27 | 356 | 4.8 | 6.4 | 0.00 | 0.00 | 0.00 | 28 | 912.6 |
| 20260505230822 | 27 | 320 | 4.8 | 8.0 | 0.00 | 0.00 | 0.00 | 27 | 912.6 |
| 20260505230307 | 27 | 8 | 3.2 | 6.4 | 0.00 | 0.00 | 0.00 | 27 | 912.6 |
| 20260505225807 | 27 | 358 | 1.6 | 11.3 | 0.00 | 0.00 | 0.00 | 27 | 912.6 |
| 20260505225307 | 28 | 25 | 4.8 | 11.3 | 0.00 | 0.00 | 0.00 | 26 | 913.0 |
| 20260505224807 | 29 | 284 | 8.0 | 9.7 | 0.00 | 0.00 | 0.00 | 26 | 912.6 |
| 20260505224307 | 29 | 328 | 3.2 | 6.4 | 0.00 | 0.00 | 0.00 | 26 | 912.6 |
| 20260505223807 | 28 | 93 | 4.8 | 9.7 | 0.00 | 0.00 | 0.00 | 26 | 912.6 |
| 20260505223307 | 27 | 37 | 1.6 | 8.0 | 0.00 | 0.00 | 0.00 | 28 | 912.6 |
| 20260505222807 | 28 | 76 | 4.8 | 8.0 | 0.00 | 0.00 | 0.00 | 26 | 913.0 |
| 20260505222307 | 30 | 27 | 4.8 | 6.4 | 0.00 | 0.00 | 0.00 | 25 | 913.0 |
| 20260505221807 | 30 | 245 | 3.2 | 8.0 | 0.00 | 0.00 | 0.00 | 24 | 913.0 |
| 20260505221308 | 30 | 18 | 1.6 | 8.0 | 0.00 | 0.00 | 0.00 | 24 | 913.0 |
| 20260505220808 | 29 | 302 | 4.8 | 8.0 | 0.00 | 0.00 | 0.00 | 27 | 913.0 |
| 20260505220321 | 28 | 274 | 0.0 | 8.0 | 0.00 | 0.00 | 0.00 | 25 | 913.0 |
| 20260505215806 | 28 | 246 | 4.8 | 8.0 | 0.00 | 0.00 | 0.00 | 26 | 913.0 |
| 20260505215306 | 28 | 296 | 3.2 | 4.8 | 0.00 | 0.00 | 0.00 | 28 | 913.0 |
| 20260505214807 | 28 | 194 | 0.0 | 8.0 | 0.00 | 0.00 | 0.00 | 25 | 913.0 |
| 20260505214306 | 30 | 345 | 4.8 | 8.0 | 0.00 | 0.00 | 0.00 | 26 | 913.0 |
| 20260505213806 | 30 | 319 | 3.2 | 6.4 | 0.00 | 0.00 | 0.00 | 25 | 913.0 |
| 20260505213307 | 29 | 346 | 3.2 | 3.2 | 0.00 | 0.00 | 0.00 | 27 | 913.0 |
| 20260505212807 | 28 | 318 | 4.8 | 8.0 | 0.00 | 0.00 | 0.00 | 27 | 913.0 |
| 20260505212307 | 28 | 65 | 4.8 | 4.8 | 0.00 | 0.00 | 0.00 | 25 | 913.0 |
| 20260505211806 | 29 | 112 | 3.2 | 6.4 | 0.00 | 0.00 | 0.00 | 26 | 913.0 |
| 20260505211306 | 29 | 185 | 1.6 | 1.6 | 0.00 | 0.00 | 0.00 | 27 | 913.0 |
| 20260505210807 | 29 | 161 | 4.8 | 8.0 | 0.00 | 0.00 | 0.00 | 28 | 913.0 |
| 20260505210322 | 28 | 22 | 1.6 | 9.7 | 0.00 | 0.00 | 0.00 | 26 | 913.0 |
| 20260505205821 | 28 | 18 | 3.2 | 6.4 | 0.00 | 0.00 | 0.00 | 26 | 913.0 |
| 20260505205306 | 28 | 281 | 4.8 | 11.3 | 0.00 | 0.00 | 0.00 | 26 | 913.0 |
| 20260505204806 | 28 | 296 | 4.8 | 6.4 | 0.00 | 0.00 | 0.00 | 27 | 913.0 |
| 20260505204306 | 27 | 291 | 6.4 | 11.3 | 0.00 | 0.00 | 0.00 | 32 | 913.0 |
| 20260505203822 | 28 | 159 | 4.8 | 8.0 | 0.00 | 0.00 | 0.00 | 32 | 913.0 |
| 20260505203306 | 28 | 20 | 4.8 | 4.8 | 0.00 | 0.00 | 0.00 | 30 | 913.3 |
| 20260505202806 | 28 | 238 | 1.6 | 3.2 | 0.00 | 0.00 | 0.00 | 29 | 913.3 |
| 20260505202307 | 28 | 255 | 3.2 | 4.8 | 0.00 | 0.00 | 0.00 | 32 | 913.3 |
| 20260505201821 | 28 | 196 | 1.6 | 4.8 | 0.00 | 0.00 | 0.00 | 31 | 913.3 |
| 20260505201306 | 28 | 316 | 1.6 | 4.8 | 0.00 | 0.00 | 0.00 | 31 | 913.3 |
| 20260505200806 | 28 | 334 | 4.8 | 6.4 | 0.00 | 0.00 | 0.00 | 34 | 913.3 |
| 20260505200321 | 27 | 249 | 3.2 | 3.2 | 0.00 | 0.00 | 0.00 | 33 | 913.3 |
| 20260505195821 | 27 | 22 | 1.6 | 4.8 | 0.00 | 0.00 | 0.00 | 35 | 913.6 |
| 20260505195306 | 27 | 183 | 4.8 | 4.8 | 0.00 | 0.00 | 0.00 | 34 | 913.6 |
| 20260505194806 | 27 | 334 | 4.8 | 4.8 | 0.00 | 0.00 | 0.00 | 33 | 913.6 |
| 20260505194321 | 27 | 222 | 1.6 | 4.8 | 0.00 | 0.00 | 0.00 | 35 | 913.6 |
| 20260505193806 | 27 | 5 | 3.2 | 9.7 | 0.00 | 0.00 | 0.00 | 33 | 913.6 |
| 20260505193306 | 27 | 209 | 3.2 | 3.2 | 0.00 | 0.00 | 0.00 | 35 | 913.6 |
| 20260505192806 | 27 | 295 | 0.0 | 4.8 | 0.00 | 0.00 | 0.00 | 35 | 913.6 |
| 20260505192321 | 26 | 120 | 0.0 | 4.8 | 0.00 | 0.00 | 0.00 | 35 | 913.6 |
| 20260505191806 | 26 | 319 | 4.8 | 6.4 | 0.00 | 0.00 | 0.00 | 34 | 913.6 |
| 20260505191321 | 26 | 274 | 4.8 | 4.8 | 0.00 | 0.00 | 0.00 | 34 | 913.6 |
| 20260505190806 | 26 | 289 | 3.2 | 4.8 | 0.00 | 0.00 | 0.00 | 34 | 914.0 |
| 20260505190321 | 26 | 208 | 1.6 | 6.4 | 0.00 | 0.00 | 0.00 | 34 | 914.0 |
| 20260505185806 | 26 | 302 | 1.6 | 6.4 | 0.00 | 0.00 | 0.00 | 35 | 914.0 |
| 20260505185306 | 26 | 238 | 0.0 | 6.4 | 0.00 | 0.00 | 0.00 | 34 | 914.0 |
| 20260505184806 | 26 | 219 | 3.2 | 4.8 | 0.00 | 0.00 | 0.00 | 35 | 914.0 |
| 20260505184306 | 26 | 173 | 3.2 | 4.8 | 0.00 | 0.00 | 0.00 | 34 | 914.0 |
| 20260505183806 | 26 | 19 | 3.2 | 4.8 | 0.00 | 0.00 | 0.00 | 35 | 914.0 |
| 20260505183306 | 25 | 60 | 3.2 | 4.8 | 0.00 | 0.00 | 0.00 | 36 | 914.0 |
| 20260505182806 | 25 | 287 | 0.0 | 8.0 | 0.00 | 0.00 | 0.00 | 35 | 914.0 |
| 20260505182321 | 25 | 332 | 1.6 | 4.8 | 0.00 | 0.00 | 0.00 | 35 | 913.6 |
| 20260505181806 | 25 | 264 | 0.0 | 4.8 | 0.00 | 0.00 | 0.00 | 37 | 914.0 |
| 20260505181306 | 25 | 105 | 0.0 | 4.8 | 0.00 | 0.00 | 0.00 | 38 | 914.0 |
| 20260505180820 | 25 | 205 | 1.6 | 1.6 | 0.00 | 0.00 | 0.00 | 39 | 914.0 |
| 20260505180305 | 24 | 228 | 3.2 | 4.8 | 0.00 | 0.00 | 0.00 | 37 | 914.0 |
| 20260505175806 | 25 | 181 | 3.2 | 3.2 | 0.00 | 0.00 | 0.00 | 37 | 914.0 |
| 20260505175306 | 24 | 283 | 4.8 | 4.8 | 0.00 | 0.00 | 0.00 | 38 | 914.0 |
| 20260505174821 | 24 | 250 | 1.6 | 4.8 | 0.00 | 0.00 | 0.00 | 37 | 914.0 |
| 20260505174305 | 24 | 279 | 3.2 | 4.8 | 0.00 | 0.00 | 0.00 | 36 | 914.0 |
| 20260505173806 | 24 | 334 | 4.8 | 4.8 | 0.00 | 0.00 | 0.00 | 39 | 914.0 |
| 20260505173306 | 23 | 335 | 4.8 | 4.8 | 0.00 | 0.00 | 0.00 | 36 | 914.0 |
| 20260505172806 | 23 | 222 | 3.2 | 3.2 | 0.00 | 0.00 | 0.00 | 40 | 914.3 |
| 20260505172306 | 23 | 245 | 1.6 | 3.2 | 0.00 | 0.00 | 0.00 | 38 | 914.0 |
| 20260505171821 | 23 | 162 | 0.0 | 3.2 | 0.00 | 0.00 | 0.00 | 38 | 914.0 |
| 20260505171306 | 23 | 314 | 0.0 | 4.8 | 0.00 | 0.00 | 0.00 | 41 | 914.0 |
| 20260505170806 | 22 | 89 | 1.6 | 3.2 | 0.00 | 0.00 | 0.00 | 42 | 914.3 |
| 20260505170305 | 22 | 323 | 3.2 | 6.4 | 0.00 | 0.00 | 0.00 | 41 | 914.3 |
| 20260505165805 | 22 | 28 | 3.2 | 4.8 | 0.00 | 0.00 | 0.00 | 40 | 914.3 |
| 20260505165321 | 22 | 80 | 1.6 | 1.6 | 0.00 | 0.00 | 0.00 | 43 | 914.0 |
| 20260505164807 | 22 | 304 | 0.0 | 1.6 | 0.00 | 0.00 | 0.00 | 42 | 914.3 |
| 20260505164306 | 21 | 318 | 3.2 | 3.2 | 0.00 | 0.00 | 0.00 | 42 | 914.3 |
| 20260505163805 | 21 | 49 | 1.6 | 3.2 | 0.00 | 0.00 | 0.00 | 44 | 914.3 |
| 20260505163306 | 21 | 234 | 1.6 | 3.2 | 0.00 | 0.00 | 0.00 | 45 | 914.3 |
| 20260505162805 | 20 | 355 | 0.0 | 0.0 | 0.00 | 0.00 | 0.00 | 47 | 914.3 |
| 20260505162307 | 20 | 256 | 1.6 | 1.6 | 0.00 | 0.00 | 0.00 | 45 | 914.3 |
| 20260505161805 | 20 | 211 | 0.0 | 3.2 | 0.00 | 0.00 | 0.00 | 42 | 914.3 |
| 20260505161305 | 20 | 45 | 0.0 | 1.6 | 0.00 | 0.00 | 0.00 | 43 | 914.3 |
| 20260505160821 | 19 | 287 | 0.0 | 0.0 | 0.00 | 0.00 | 0.00 | 45 | 914.3 |
| 20260505160306 | 19 | 212 | 3.2 | 3.2 | 0.00 | 0.00 | 0.00 | 46 | 914.3 |
| 20260505153305 | 16 | 232 | 0.0 | 0.0 | 0.00 | 0.00 | 0.00 | 50 | 914.7 |
| 20260505152805 | 16 | 178 | 0.0 | 1.6 | 0.00 | 0.00 | 0.00 | 50 | 914.7 |
| 20260505152305 | 16 | 215 | 0.0 | 1.6 | 0.00 | 0.00 | 0.00 | 49 | 914.7 |
| 20260505151805 | 16 | 182 | 0.0 | 1.6 | 0.00 | 0.00 | 0.00 | 48 | 914.7 |
| 20260505151305 | 16 | 322 | 0.0 | 0.0 | 0.00 | 0.00 | 0.00 | 50 | 914.7 |
| 20260505150805 | 16 | 336 | 0.0 | 0.0 | 0.00 | 0.00 | 0.00 | 49 | 914.7 |
| 20260505150305 | 15 | 267 | 0.0 | 1.6 | 0.00 | 0.00 | 0.00 | 51 | 914.7 |
| 20260505140306 | 9 | 65 | 0.0 | 0.0 | 0.00 | 0.00 | 0.00 | 71 | 914.3 |
| 20260505130304 | 5 | 265 | 0.0 | 0.0 | 0.00 | 0.00 | 0.00 | 88 | 913.6 |
| 20260505124804 | 5 | 270 | 0.0 | 0.0 | 0.00 | 0.00 | 0.00 | 88 | 913.6 |
| 20260505124304 | 5 | 250 | 0.0 | 0.0 | 0.00 | 0.00 | 0.00 | 86 | 913.6 |
| 20260505123805 | 5 | 245 | 0.0 | 0.0 | 0.00 | 0.00 | 0.00 | 85 | 913.6 |
| 20260505123305 | 5 | 287 | 0.0 | 0.0 | 0.00 | 0.00 | 0.00 | 84 | 913.6 |
| 20260505122804 | 5 | 265 | 0.0 | 0.0 | 0.00 | 0.00 | 0.00 | 84 | 913.3 |
| 20260505122305 | 5 | 265 | 0.0 | 0.0 | 0.00 | 0.00 | 0.00 | 83 | 913.3 |
| 20260505121804 | 5 | 265 | 0.0 | 0.0 | 0.00 | 0.00 | 0.00 | 82 | 913.3 |
| 20260505121304 | 5 | 297 | 0.0 | 0.0 | 0.00 | 0.00 | 0.00 | 82 | 913.3 |
| 20260505120804 | 5 | 339 | 0.0 | 0.0 | 0.00 | 0.00 | 0.00 | 82 | 913.3 |
| 20260505120319 | 5 | 266 | 0.0 | 0.0 | 0.00 | 0.00 | 0.00 | 82 | 913.3 |
| 20260505115804 | 5 | 294 | 0.0 | 0.0 | 0.00 | 0.00 | 0.00 | 82 | 913.3 |
| 20260505115305 | 5 | 268 | 0.0 | 0.0 | 0.00 | 0.00 | 0.00 | 82 | 913.3 |
| 20260505114804 | 5 | 251 | 0.0 | 0.0 | 0.00 | 0.00 | 0.00 | 80 | 913.3 |
| 20260505114304 | 5 | 253 | 0.0 | 0.0 | 0.00 | 0.00 | 0.00 | 79 | 913.3 |
| 20260505113804 | 6 | 281 | 0.0 | 0.0 | 0.00 | 0.00 | 0.00 | 78 | 913.3 |
| 20260505113305 | 6 | 257 | 0.0 | 0.0 | 0.00 | 0.00 | 0.00 | 79 | 913.3 |
| 20260505112804 | 6 | 271 | 0.0 | 0.0 | 0.00 | 0.00 | 0.00 | 78 | 913.0 |
| 20260505112305 | 6 | 256 | 0.0 | 0.0 | 0.00 | 0.00 | 0.00 | 76 | 913.0 |
| 20260505111804 | 6 | 261 | 0.0 | 0.0 | 0.00 | 0.00 | 0.00 | 76 | 913.0 |
| 20260505111304 | 6 | 306 | 0.0 | 0.0 | 0.00 | 0.00 | 0.00 | 76 | 913.0 |
| 20260505110804 | 6 | 276 | 0.0 | 0.0 | 0.00 | 0.00 | 0.00 | 77 | 913.0 |
| 20260505110304 | 6 | 275 | 0.0 | 0.0 | 0.00 | 0.00 | 0.00 | 78 | 913.0 |
| 20260505101804 | 6 | 241 | 0.0 | 0.0 | 0.00 | 0.00 | 0.00 | 77 | 912.6 |
| 20260505101303 | 6 | 261 | 0.0 | 0.0 | 0.00 | 0.00 | 0.00 | 74 | 913.0 |
| 20260505100803 | 7 | 273 | 0.0 | 0.0 | 0.00 | 0.00 | 0.00 | 74 | 912.6 |
| 20260505100304 | 6 | 270 | 0.0 | 0.0 | 0.00 | 0.00 | 0.00 | 73 | 912.6 |
| 20260505095803 | 6 | 244 | 0.0 | 0.0 | 0.00 | 0.00 | 0.00 | 71 | 912.6 |
| 20260505095319 | 7 | 254 | 0.0 | 0.0 | 0.00 | 0.00 | 0.00 | 71 | 912.6 |
| 20260505094819 | 7 | 268 | 0.0 | 0.0 | 0.00 | 0.00 | 0.00 | 72 | 912.6 |
| 20260505094303 | 7 | 277 | 0.0 | 0.0 | 0.00 | 0.00 | 0.00 | 73 | 912.6 |
| 20260505093803 | 7 | 258 | 0.0 | 0.0 | 0.00 | 0.00 | 0.00 | 73 | 912.6 |
| 20260505093318 | 7 | 299 | 0.0 | 0.0 | 0.00 | 0.00 | 0.00 | 74 | 912.6 |
| 20260505092804 | 7 | 243 | 0.0 | 0.0 | 0.00 | 0.00 | 0.00 | 73 | 912.6 |
| 20260505092305 | 7 | 255 | 0.0 | 0.0 | 0.00 | 0.00 | 0.00 | 73 | 912.6 |
| 20260505091803 | 7 | 273 | 0.0 | 0.0 | 0.00 | 0.00 | 0.00 | 75 | 912.6 |
| 20260505091305 | 7 | 258 | 0.0 | 0.0 | 0.00 | 0.00 | 0.00 | 72 | 912.6 |
| 20260505090805 | 7 | 262 | 0.0 | 0.0 | 0.00 | 0.00 | 0.00 | 67 | 912.6 |
| 20260505090303 | 7 | 197 | 0.0 | 0.0 | 0.00 | 0.00 | 0.00 | 68 | 912.6 |
| 20260505085805 | 8 | 285 | 0.0 | 0.0 | 0.00 | 0.00 | 0.00 | 69 | 912.6 |
| 20260505085304 | 8 | 277 | 0.0 | 0.0 | 0.00 | 0.00 | 0.00 | 69 | 912.6 |
| 20260505084804 | 8 | 281 | 0.0 | 0.0 | 0.00 | 0.00 | 0.00 | 65 | 912.6 |
| 20260505084303 | 8 | 273 | 0.0 | 0.0 | 0.00 | 0.00 | 0.00 | 63 | 912.6 |
| 20260505083804 | 8 | 302 | 0.0 | 0.0 | 0.00 | 0.00 | 0.00 | 63 | 912.6 |
| 20260505083303 | 9 | 293 | 0.0 | 0.0 | 0.00 | 0.00 | 0.00 | 63 | 912.6 |
| 20260505082803 | 9 | 281 | 0.0 | 0.0 | 0.00 | 0.00 | 0.00 | 63 | 912.6 |
| 20260505082304 | 10 | 286 | 0.0 | 0.0 | 0.00 | 0.00 | 0.00 | 63 | 912.6 |
| 20260505081803 | 10 | 233 | 0.0 | 0.0 | 0.00 | 0.00 | 0.00 | 61 | 912.6 |
| 20260505081303 | 10 | 264 | 0.0 | 3.2 | 0.00 | 0.00 | 0.00 | 58 | 912.6 |
| 20260505080819 | 10 | 267 | 0.0 | 0.0 | 0.00 | 0.00 | 0.00 | 59 | 912.6 |
| 20260505080303 | 10 | 210 | 0.0 | 0.0 | 0.00 | 0.00 | 0.00 | 61 | 912.6 |
| 20260505075803 | 10 | 55 | 0.0 | 0.0 | 0.00 | 0.00 | 0.00 | 61 | 912.3 |
| 20260505075318 | 10 | 228 | 0.0 | 0.0 | 0.00 | 0.00 | 0.00 | 65 | 912.3 |
| 20260505074818 | 9 | 310 | 0.0 | 0.0 | 0.00 | 0.00 | 0.00 | 63 | 912.6 |
| 20260505074303 | 10 | 302 | 0.0 | 0.0 | 0.00 | 0.00 | 0.00 | 64 | 912.6 |
| 20260505073803 | 10 | 274 | 0.0 | 0.0 | 0.00 | 0.00 | 0.00 | 64 | 912.6 |
| 20260505073303 | 10 | 284 | 0.0 | 0.0 | 0.00 | 0.00 | 0.00 | 64 | 912.6 |
| 20260505072803 | 10 | 285 | 0.0 | 0.0 | 0.00 | 0.00 | 0.00 | 64 | 912.6 |
| 20260505072305 | 10 | 234 | 0.0 | 0.0 | 0.00 | 0.00 | 0.00 | 63 | 912.3 |
| 20260505071818 | 11 | 260 | 0.0 | 0.0 | 0.00 | 0.00 | 0.00 | 56 | 912.6 |
| 20260505071303 | 11 | 305 | 0.0 | 0.0 | 0.00 | 0.00 | 0.00 | 56 | 912.3 |
| 20260505070803 | 11 | 268 | 0.0 | 0.0 | 0.00 | 0.00 | 0.00 | 56 | 912.3 |
| 20260505070303 | 11 | 241 | 0.0 | 3.2 | 0.00 | 0.00 | 0.00 | 58 | 912.3 |
| 20260505065803 | 11 | 256 | 0.0 | 0.0 | 0.00 | 0.00 | 0.00 | 53 | 912.3 |
| 20260505065318 | 12 | 334 | 0.0 | 0.0 | 0.00 | 0.00 | 0.00 | 53 | 912.3 |
| 20260505064819 | 12 | 235 | 0.0 | 0.0 | 0.00 | 0.00 | 0.00 | 53 | 912.3 |
| 20260505064303 | 12 | 253 | 0.0 | 0.0 | 0.00 | 0.00 | 0.00 | 54 | 912.3 |
| 20260505063803 | 13 | 252 | 0.0 | 0.0 | 0.00 | 0.00 | 0.00 | 48 | 912.3 |
| 20260505063303 | 13 | 268 | 0.0 | 0.0 | 0.00 | 0.00 | 0.00 | 48 | 912.3 |
| 20260505062803 | 14 | 265 | 0.0 | 0.0 | 0.00 | 0.00 | 0.00 | 47 | 912.3 |
| 20260505062304 | 14 | 253 | 0.0 | 4.8 | 0.00 | 0.00 | 0.00 | 44 | 912.3 |
| 20260505061803 | 15 | 4 | 0.0 | 0.0 | 0.00 | 0.00 | 0.00 | 41 | 912.0 |
| 20260505061318 | 15 | 344 | 0.0 | 0.0 | 0.00 | 0.00 | 0.00 | 41 | 912.3 |
| 20260505060803 | 15 | 266 | 0.0 | 1.6 | 0.00 | 0.00 | 0.00 | 42 | 912.0 |
| 20260505060303 | 15 | 332 | 4.8 | 4.8 | 0.00 | 0.00 | 0.00 | 38 | 912.0 |
| 20260505055803 | 15 | 36 | 0.0 | 4.8 | 0.00 | 0.00 | 0.00 | 39 | 912.3 |
| 20260505055317 | 15 | 339 | 0.0 | 0.0 | 0.00 | 0.00 | 0.00 | 39 | 912.3 |
| 20260505054803 | 15 | 116 | 0.0 | 3.2 | 0.00 | 0.00 | 0.00 | 38 | 912.3 |
| 20260505054302 | 15 | 276 | 0.0 | 6.4 | 0.00 | 0.00 | 0.00 | 39 | 912.0 |
| 20260505053818 | 15 | 321 | 1.6 | 4.8 | 0.00 | 0.00 | 0.00 | 40 | 912.3 |
| 20260505053303 | 15 | 248 | 0.0 | 0.0 | 0.00 | 0.00 | 0.00 | 42 | 912.3 |
| 20260505052803 | 15 | 230 | 0.0 | 0.0 | 0.00 | 0.00 | 0.00 | 46 | 912.3 |
| 20260505052304 | 15 | 276 | 0.0 | 0.0 | 0.00 | 0.00 | 0.00 | 47 | 912.3 |
| 20260505051802 | 16 | 277 | 0.0 | 0.0 | 0.00 | 0.00 | 0.00 | 43 | 912.0 |
| 20260505051302 | 16 | 249 | 3.2 | 3.2 | 0.00 | 0.00 | 0.00 | 41 | 912.0 |
| 20260505050803 | 16 | 249 | 0.0 | 0.0 | 0.00 | 0.00 | 0.00 | 41 | 912.0 |
| 20260505050318 | 17 | 212 | 0.0 | 0.0 | 0.00 | 0.00 | 0.00 | 38 | 912.0 |
| 20260505041302 | 17 | 318 | 0.0 | 4.8 | 0.00 | 0.00 | 0.00 | 37 | 911.3 |
| 20260505040802 | 17 | 310 | 0.0 | 3.2 | 0.00 | 0.00 | 0.00 | 36 | 911.3 |
| 20260505040302 | 17 | 68 | 0.0 | 1.6 | 0.00 | 0.00 | 0.00 | 35 | 911.3 |
| 20260505035802 | 18 | 38 | 0.0 | 1.6 | 0.00 | 0.00 | 0.00 | 35 | 910.9 |
| 20260505035304 | 18 | 346 | 0.0 | 1.6 | 0.00 | 0.00 | 0.00 | 34 | 910.9 |
| 20260505034802 | 18 | 288 | 0.0 | 4.8 | 0.00 | 0.00 | 0.00 | 34 | 910.9 |
| 20260505034302 | 18 | 19 | 4.8 | 4.8 | 0.00 | 0.00 | 0.00 | 33 | 910.6 |
| 20260505033802 | 19 | 205 | 3.2 | 4.8 | 0.00 | 0.00 | 0.00 | 33 | 910.6 |
| 20260505033302 | 19 | 291 | 4.8 | 8.0 | 0.00 | 0.00 | 0.00 | 32 | 910.6 |
| 20260505032802 | 20 | 118 | 0.0 | 8.0 | 0.00 | 0.00 | 0.00 | 32 | 910.6 |
| 20260505032301 | 20 | 221 | 1.6 | 8.0 | 0.00 | 0.00 | 0.00 | 32 | 910.3 |
| 20260505031802 | 20 | 314 | 1.6 | 4.8 | 0.00 | 0.00 | 0.00 | 31 | 910.3 |
| 20260505031317 | 20 | 305 | 3.2 | 9.7 | 0.00 | 0.00 | 0.00 | 31 | 910.3 |
| 20260505030802 | 21 | 340 | 0.0 | 14.5 | 0.00 | 0.00 | 0.00 | 30 | 910.3 |
| 20260505030302 | 21 | 78 | 3.2 | 12.9 | 0.00 | 0.00 | 0.00 | 29 | 909.9 |
| 20260505025802 | 21 | 290 | 12.9 | 12.9 | 0.00 | 0.00 | 0.00 | 29 | 909.9 |
| 20260505025304 | 21 | 341 | 4.8 | 9.7 | 0.00 | 0.00 | 0.00 | 28 | 909.9 |
| 20260505024802 | 21 | 61 | 4.8 | 9.7 | 0.00 | 0.00 | 0.00 | 28 | 909.9 |
| 20260505024302 | 22 | 282 | 1.6 | 1.6 | 0.00 | 0.00 | 0.00 | 28 | 909.6 |
| 20260505023802 | 22 | 304 | 11.3 | 11.3 | 0.00 | 0.00 | 0.00 | 28 | 909.6 |
| 20260505023302 | 22 | 331 | 4.8 | 4.8 | 0.00 | 0.00 | 0.00 | 28 | 909.6 |
| 20260505022802 | 22 | 17 | 1.6 | 6.4 | 0.00 | 0.00 | 0.00 | 28 | 909.6 |
| 20260505022317 | 23 | 347 | 8.0 | 8.0 | 0.00 | 0.00 | 0.00 | 28 | 909.6 |
| 20260505021802 | 23 | 147 | 4.8 | 9.7 | 0.00 | 0.00 | 0.00 | 27 | 909.6 |
| 20260505021301 | 23 | 1 | 4.8 | 14.5 | 0.00 | 0.00 | 0.00 | 27 | 909.6 |
| 20260505020802 | 23 | 359 | 4.8 | 8.0 | 0.00 | 0.00 | 0.00 | 28 | 909.6 |
| 20260505020302 | 23 | 111 | 11.3 | 12.9 | 0.00 | 0.00 | 0.00 | 26 | 909.6 |
| 20260505015801 | 24 | 247 | 11.3 | 11.3 | 0.00 | 0.00 | 0.00 | 27 | 909.6 |
| 20260505015317 | 25 | 280 | 3.2 | 4.8 | 0.00 | 0.00 | 0.00 | 27 | 909.2 |
| 20260505014802 | 25 | 304 | 4.8 | 8.0 | 0.00 | 0.00 | 0.00 | 27 | 909.2 |
| 20260505014302 | 25 | 241 | 4.8 | 8.0 | 0.00 | 0.00 | 0.00 | 27 | 909.2 |